����,���ϕ���(m/s),���ϕ���,�ő�u�ԕ���(m/s),�ő啗��������,�C��(��),���x(%),10���Ԉړ��ώZ�J��(mm),1���Ԉړ��ώZ�J��(mm),���J��(mm),�݌v�J��(mm),����(���ώZ)(MJ/m2),����(���ώZ)(min),���n�C��(hPa),�C�ʋC��(hPa)
2020-11-16T00:00:00+09:00,0.2,�É�,0.7,���k��,12.9,92,0,0,0,0,12.66,380,1012.4,1026.5
2020-11-16T00:01:00+09:00,0.3,�k�k��,0.7,���k��,12.9,92.1,0,0,0,0,0,0,1012.4,1026.5
2020-11-16T00:02:00+09:00,0.3,�k�k��,0.7,���k��,12.8,91.9,0,0,0,0,0,0,1012.3,1026.4
2020-11-16T00:03:00+09:00,0.3,�k�k��,0.7,���k��,12.9,92,0,0,0,0,0,0,1012.3,1026.4
2020-11-16T00:04:00+09:00,0.2,�É�,0.7,���k��,12.8,91.9,0,0,0,0,0,0,1012.3,1026.4
2020-11-16T00:05:00+09:00,0.2,�É�,0.7,���k��,12.8,91.9,0,0,0,0,0,0,1012.2,1026.3
2020-11-16T00:06:00+09:00,0.2,�É�,0.7,���k��,12.9,92.3,0,0,0,0,0,0,1012.3,1026.4
2020-11-16T00:07:00+09:00,0.2,�É�,0.7,���k��,12.9,92.2,0,0,0,0,0,0,1012.2,1026.3
2020-11-16T00:08:00+09:00,0.2,�É�,0.7,���k��,12.9,92.4,0,0,0,0,0,0,1012.2,1026.3
2020-11-16T00:09:00+09:00,0.1,�É�,0.7,�k��,12.8,92,0,0,0,0,0,0,1012.2,1026.3
2020-11-16T00:10:00+09:00,0.1,�É�,0.4,�k��,12.7,91.7,0,0,0,0,0,0,1012.2,1026.3
2020-11-16T00:11:00+09:00,0.1,�É�,0.4,�k��,12.6,91.6,0,0,0,0,0,0,1012.3,1026.4
2020-11-16T00:12:00+09:00,0.1,�É�,0.4,�k��,12.6,91.8,0,0,0,0,0,0,1012.2,1026.3
2020-11-16T00:13:00+09:00,0.1,�É�,0.4,�k��,12.7,92.3,0,0,0,0,0,0,1012.2,1026.3
2020-11-16T00:14:00+09:00,0.1,�É�,0.6,��,12.6,92.2,0,0,0,0,0,0,1012.2,1026.3
2020-11-16T00:15:00+09:00,0.1,�É�,0.6,��,12.5,92.1,0,0,0,0,0,0,1012.2,1026.3
2020-11-16T00:16:00+09:00,0.1,�É�,0.6,��,12.5,92.5,0,0,0,0,0,0,1012.2,1026.3
2020-11-16T00:17:00+09:00,0.2,�É�,0.7,��,12.8,93.5,0,0,0,0,0,0,1012.2,1026.3
2020-11-16T00:18:00+09:00,0.2,�É�,0.9,��,13,94.2,0,0,0,0,0,0,1012.2,1026.3
2020-11-16T00:19:00+09:00,0.3,��,0.9,��,12.9,93.5,0,0,0,0,0,0,1012.2,1026.3
2020-11-16T00:20:00+09:00,0.3,��,1,���k��,12.7,92.6,0,0,0,0,0,0,1012.2,1026.3
2020-11-16T00:21:00+09:00,0.4,��,1.9,��,12.5,92,0,0,0,0,0,0,1012.3,1026.4
2020-11-16T00:22:00+09:00,0.6,��,1.9,��,12.3,91.6,0,0,0,0,0,0,1012.3,1026.4
2020-11-16T00:23:00+09:00,0.7,��,1.9,��,12.4,91.6,0,0,0,0,0,0,1012.3,1026.4
2020-11-16T00:24:00+09:00,0.8,��,1.9,��,12.5,92.5,0,0,0,0,0,0,1012.3,1026.4
2020-11-16T00:25:00+09:00,0.9,��,1.9,��,12.5,92.5,0,0,0,0,0,0,1012.3,1026.4
2020-11-16T00:26:00+09:00,1,��,1.9,��,12.4,92.6,0,0,0,0,0,0,1012.3,1026.4
2020-11-16T00:27:00+09:00,1,���k��,1.9,��,12.4,92.6,0,0,0,0,0,0,1012.2,1026.3
2020-11-16T00:28:00+09:00,1,��,1.9,��,12.4,92.6,0,0,0,0,0,0,1012.2,1026.3
2020-11-16T00:29:00+09:00,1,��,1.9,��,12.5,93.2,0,0,0,0,0,0,1012.2,1026.3
2020-11-16T00:30:00+09:00,1,��,1.9,��,12.4,92.9,0,0,0,0,0,0,1012.2,1026.3
2020-11-16T00:31:00+09:00,0.8,��,1.7,��,12.3,93,0,0,0,0,0,0,1012.2,1026.3
2020-11-16T00:32:00+09:00,0.8,��,1.5,���k��,12.2,92.7,0,0,0,0,0,0,1012.2,1026.3
2020-11-16T00:33:00+09:00,0.9,��,2,��,12.2,92.9,0,0,0,0,0,0,1012.1,1026.2
2020-11-16T00:34:00+09:00,0.9,��,2,��,12.3,93.3,0,0,0,0,0,0,1012.1,1026.2
2020-11-16T00:35:00+09:00,1,��,2,��,12.3,94,0,0,0,0,0,0,1012.1,1026.2
2020-11-16T00:36:00+09:00,1,��,2,��,12.3,93.9,0,0,0,0,0,0,1012.1,1026.2
2020-11-16T00:37:00+09:00,1,��,2,��,12.3,93.9,0,0,0,0,0,0,1012.1,1026.2
2020-11-16T00:38:00+09:00,1.1,��,2,��,12.4,94.4,0,0,0,0,0,0,1012.1,1026.2
2020-11-16T00:39:00+09:00,1.1,��,2,��,12.3,94.1,0,0,0,0,0,0,1012.1,1026.2
2020-11-16T00:40:00+09:00,1.1,��,2,��,12.3,94,0,0,0,0,0,0,1012.1,1026.2
2020-11-16T00:41:00+09:00,1.1,��,2,��,12.4,94.7,0,0,0,0,0,0,1012.1,1026.2
2020-11-16T00:42:00+09:00,1.2,��,2,��,12.3,94.3,0,0,0,0,0,0,1012.1,1026.2
2020-11-16T00:43:00+09:00,1.1,��,2,��,12.2,94.1,0,0,0,0,0,0,1012.1,1026.2
2020-11-16T00:44:00+09:00,1,��,1.7,��,12.3,94.3,0,0,0,0,0,0,1012.1,1026.2
2020-11-16T00:45:00+09:00,1,��,1.5,���k��,12.1,93.9,0,0,0,0,0,0,1012.1,1026.2
2020-11-16T00:46:00+09:00,1,��,1.5,���k��,12.2,94.1,0,0,0,0,0,0,1012.1,1026.2
2020-11-16T00:47:00+09:00,1,��,2.9,��,12.3,94.8,0,0,0,0,0,0,1012.1,1026.2
2020-11-16T00:48:00+09:00,1.2,��,2.9,��,12.3,95,0,0,0,0,0,0,1012.1,1026.2
2020-11-16T00:49:00+09:00,1.3,��,3.1,��,12.2,94.9,0,0,0,0,0,0,1012.1,1026.2
2020-11-16T00:50:00+09:00,1.5,��,3.1,��,12.2,94.7,0,0,0,0,0,0,1012.1,1026.2
2020-11-16T00:51:00+09:00,1.6,��,3.1,��,12.2,95.1,0,0,0,0,0,0,1012.1,1026.2
2020-11-16T00:52:00+09:00,1.6,��,3.1,��,12.2,94.9,0,0,0,0,0,0,1012.1,1026.2
2020-11-16T00:53:00+09:00,1.6,��,3.1,��,12.2,95.1,0,0,0,0,0,0,1012.1,1026.2
2020-11-16T00:54:00+09:00,1.7,��,3.1,��,12.2,95.4,0,0,0,0,0,0,1012.1,1026.2
2020-11-16T00:55:00+09:00,1.7,��,3.1,��,12.2,95.3,0,0,0,0,0,0,1012.1,1026.2
2020-11-16T00:56:00+09:00,1.7,��,3.1,��,12.1,95.2,0,0,0,0,0,0,1012.1,1026.2
2020-11-16T00:57:00+09:00,1.5,��,3.1,��,11.9,94.7,0,0,0,0,0,0,1012.1,1026.2
2020-11-16T00:58:00+09:00,1.3,��,3.1,��,12.1,95.2,0,0,0,0,0,0,1012.1,1026.2
2020-11-16T00:59:00+09:00,1.2,��,2.8,��,12.2,95.4,0,0,0,0,0,0,1012.1,1026.2
2020-11-16T01:00:00+09:00,1.1,��,2.2,��,12.2,95.7,0,0,0,0,0,0,1012.1,1026.2
2020-11-16T01:01:00+09:00,1,���쐼,2.2,��,12.2,95.7,0,0,0,0,0,0,1012.1,1026.2
2020-11-16T01:02:00+09:00,1,���쐼,2.2,��,12.1,95.3,0,0,0,0,0,0,1012.1,1026.2
2020-11-16T01:03:00+09:00,0.9,���쐼,2.2,��,12,95.4,0,0,0,0,0,0,1012.1,1026.2
2020-11-16T01:04:00+09:00,1,���쐼,2.6,��,12,95.4,0,0,0,0,0,0,1012.1,1026.2
2020-11-16T01:05:00+09:00,1,���쐼,2.6,��,12,95.3,0,0,0,0,0,0,1012.1,1026.2
2020-11-16T01:06:00+09:00,1.1,���쐼,2.6,��,11.9,95.5,0,0,0,0,0,0,1012.1,1026.2
2020-11-16T01:07:00+09:00,1.2,��,2.6,��,11.9,95.4,0,0,0,0,0,0,1012.1,1026.2
2020-11-16T01:08:00+09:00,1.3,��,2.6,��,11.8,95.4,0,0,0,0,0,0,1012.1,1026.2
2020-11-16T01:09:00+09:00,1.4,��,2.6,��,11.8,95.4,0,0,0,0,0,0,1012.1,1026.2
2020-11-16T01:10:00+09:00,1.4,��,2.6,��,11.9,95.5,0,0,0,0,0,0,1012.1,1026.2
2020-11-16T01:11:00+09:00,1.4,��,2.6,��,11.6,95.2,0,0,0,0,0,0,1012.2,1026.4
2020-11-16T01:12:00+09:00,1.5,��,2.6,��,11.8,95.5,0,0,0,0,0,0,1012.2,1026.3
2020-11-16T01:13:00+09:00,1.5,��,2.6,��,11.8,95.6,0,0,0,0,0,0,1012.2,1026.3
2020-11-16T01:14:00+09:00,1.5,���k��,2.4,��,11.7,95.2,0,0,0,0,0,0,1012.2,1026.4
2020-11-16T01:15:00+09:00,1.4,���k��,2.4,��,11.7,95.1,0,0,0,0,0,0,1012.2,1026.4
2020-11-16T01:16:00+09:00,1.4,���k��,2.2,���k��,11.5,94.7,0,0,0,0,0,0,1012.2,1026.4
2020-11-16T01:17:00+09:00,1.3,���k��,2.2,���k��,11.3,94.3,0,0,0,0,0,0,1012.2,1026.4
2020-11-16T01:18:00+09:00,1.3,���k��,2.2,���k��,11.3,94.4,0,0,0,0,0,0,1012.2,1026.4
2020-11-16T01:19:00+09:00,1.2,���k��,1.9,���k��,11.4,94.7,0,0,0,0,0,0,1012.2,1026.4
2020-11-16T01:20:00+09:00,1.2,�k��,1.9,���k��,11.4,95.1,0,0,0,0,0,0,1012.2,1026.4
2020-11-16T01:21:00+09:00,1.2,�k��,1.9,���k��,11.4,95.2,0,0,0,0,0,0,1012.2,1026.4
2020-11-16T01:22:00+09:00,1.1,�k�k��,1.9,���k��,11.3,95.2,0,0,0,0,0,0,1012.2,1026.4
2020-11-16T01:23:00+09:00,1.1,�k�k��,1.9,���k��,11.2,94.9,0,0,0,0,0,0,1012.2,1026.4
2020-11-16T01:24:00+09:00,1,�k�k��,1.9,���k��,11.3,95.1,0,0,0,0,0,0,1012.2,1026.4
2020-11-16T01:25:00+09:00,0.9,�k�k��,1.7,�k,11.5,95.5,0,0,0,0,0,0,1012.2,1026.4
2020-11-16T01:26:00+09:00,0.8,�k�k��,1.7,�k,11.5,95.7,0,0,0,0,0,0,1012.2,1026.4
2020-11-16T01:27:00+09:00,0.8,�k,1.7,�k,11.4,95.5,0,0,0,0,0,0,1012.3,1026.5
2020-11-16T01:28:00+09:00,0.8,�k,1.7,�k,11.5,95.5,0,0,0,0,0,0,1012.3,1026.5
2020-11-16T01:29:00+09:00,0.8,�k,1.7,�k,11.4,95.5,0,0,0,0,0,0,1012.3,1026.5
2020-11-16T01:30:00+09:00,0.8,�k,1.6,�k,11.5,95.6,0,0,0,0,0,0,1012.3,1026.5
2020-11-16T01:31:00+09:00,0.7,�k,1.4,�k,11.6,95.7,0,0,0,0,0,0,1012.3,1026.5
2020-11-16T01:32:00+09:00,0.7,�k�k��,1.4,�k,11.5,95.7,0,0,0,0,0,0,1012.4,1026.6
2020-11-16T01:33:00+09:00,0.7,�k�k��,1.4,�k,11.4,95.5,0,0,0,0,0,0,1012.4,1026.6
2020-11-16T01:34:00+09:00,0.7,�k�k��,1.4,�k,11.5,95.5,0,0,0,0,0,0,1012.4,1026.6
2020-11-16T01:35:00+09:00,0.7,�k�k��,1.4,�k,11.5,95.5,0,0,0,0,0,0,1012.4,1026.6
2020-11-16T01:36:00+09:00,0.7,�k�k��,1.4,�k,11.4,95.5,0,0,0,0,0,0,1012.4,1026.6
2020-11-16T01:37:00+09:00,0.7,�k�k��,1.5,�k�k��,11.5,95.4,0,0,0,0,0,0,1012.4,1026.6
2020-11-16T01:38:00+09:00,0.7,�k�k��,1.5,�k�k��,11.4,95.5,0,0,0,0,0,0,1012.4,1026.6
2020-11-16T01:39:00+09:00,0.6,�k�k��,1.5,�k�k��,11.4,95.4,0,0,0,0,0,0,1012.4,1026.6
2020-11-16T01:40:00+09:00,0.6,�k�k��,1.5,�k�k��,11.2,95.2,0,0,0,0,0,0,1012.4,1026.6
2020-11-16T01:41:00+09:00,0.6,�k�k��,1.5,�k�k��,11.2,95.2,0,0,0,0,0,0,1012.4,1026.6
2020-11-16T01:42:00+09:00,0.7,�k�k��,1.5,�k�k��,11.2,95.2,0,0,0,0,0,0,1012.4,1026.6
2020-11-16T01:43:00+09:00,0.7,�k�k��,1.5,�k�k��,11.2,95.3,0,0,0,0,0,0,1012.4,1026.6
2020-11-16T01:44:00+09:00,0.7,�k�k��,1.5,�k�k��,11.3,95.4,0,0,0,0,0,0,1012.4,1026.6
2020-11-16T01:45:00+09:00,0.7,�k�k��,1.5,�k�k��,11.2,95.4,0,0,0,0,0,0,1012.4,1026.6
2020-11-16T01:46:00+09:00,0.8,�k�k��,1.6,�k��,11.3,95.5,0,0,0,0,0,0,1012.4,1026.6
2020-11-16T01:47:00+09:00,0.9,�k�k��,1.6,�k��,11.2,95.5,0,0,0,0,0,0,1012.4,1026.6
2020-11-16T01:48:00+09:00,0.9,�k�k��,1.7,�k,11.2,95.4,0,0,0,0,0,0,1012.4,1026.6
2020-11-16T01:49:00+09:00,0.9,�k�k��,1.7,�k,11.1,95.4,0,0,0,0,0,0,1012.4,1026.6
2020-11-16T01:50:00+09:00,0.9,�k�k��,1.7,�k,11.2,95.4,0,0,0,0,0,0,1012.4,1026.6
2020-11-16T01:51:00+09:00,0.9,�k�k��,1.7,�k,11.1,95.4,0,0,0,0,0,0,1012.3,1026.5
2020-11-16T01:52:00+09:00,0.9,�k�k��,1.7,�k,11.1,95.5,0,0,0,0,0,0,1012.3,1026.5
2020-11-16T01:53:00+09:00,0.9,�k�k��,1.7,�k,11.1,95.5,0,0,0,0,0,0,1012.3,1026.5
2020-11-16T01:54:00+09:00,0.9,�k�k��,1.7,�k,11.1,95.6,0,0,0,0,0,0,1012.3,1026.5
2020-11-16T01:55:00+09:00,0.8,�k�k��,1.7,�k,11.1,95.6,0,0,0,0,0,0,1012.3,1026.5
2020-11-16T01:56:00+09:00,0.7,�k�k��,1.7,�k,11.1,95.7,0,0,0,0,0,0,1012.3,1026.5
2020-11-16T01:57:00+09:00,0.7,�k�k��,1.7,�k,11,95.6,0,0,0,0,0,0,1012.3,1026.5
2020-11-16T01:58:00+09:00,0.6,�k�k��,1.4,�k,10.9,95.5,0,0,0,0,0,0,1012.3,1026.5
2020-11-16T01:59:00+09:00,0.6,�k,1.5,�k�k��,10.9,95.5,0,0,0,0,0,0,1012.3,1026.5
2020-11-16T02:00:00+09:00,0.7,�k,1.9,�k�k��,10.8,95.5,0,0,0,0,0,0,1012.3,1026.5
2020-11-16T02:01:00+09:00,0.8,�k,1.9,�k�k��,10.9,95.6,0,0,0,0,0,0,1012.3,1026.5
2020-11-16T02:02:00+09:00,0.9,�k,1.9,�k�k��,10.9,95.8,0,0,0,0,0,0,1012.3,1026.5
2020-11-16T02:03:00+09:00,0.9,�k,1.9,�k�k��,11,95.9,0,0,0,0,0,0,1012.3,1026.5
2020-11-16T02:04:00+09:00,0.8,�k,1.9,�k�k��,10.9,95.9,0,0,0,0,0,0,1012.3,1026.5
2020-11-16T02:05:00+09:00,0.8,�k,1.9,�k�k��,10.9,95.8,0,0,0,0,0,0,1012.4,1026.6
2020-11-16T02:06:00+09:00,0.8,�k,1.9,�k�k��,10.8,95.7,0,0,0,0,0,0,1012.3,1026.5
2020-11-16T02:07:00+09:00,0.9,�k,1.9,�k�k��,10.9,95.8,0,0,0,0,0,0,1012.3,1026.5
2020-11-16T02:08:00+09:00,0.9,�k,1.9,�k�k��,10.8,95.8,0,0,0,0,0,0,1012.3,1026.5
2020-11-16T02:09:00+09:00,0.8,�k,1.9,�k�k��,10.7,95.7,0,0,0,0,0,0,1012.3,1026.5
2020-11-16T02:10:00+09:00,0.7,�k,1.9,�k�k��,10.7,95.7,0,0,0,0,0,0,1012.3,1026.5
2020-11-16T02:11:00+09:00,0.6,�k,1.9,�k�k��,10.7,95.8,0,0,0,0,0,0,1012.3,1026.5
2020-11-16T02:12:00+09:00,0.6,�k,1.4,�k�k��,10.8,95.8,0,0,0,0,0,0,1012.3,1026.5
2020-11-16T02:13:00+09:00,0.5,�k,1.4,�k�k��,10.8,96.1,0,0,0,0,0,0,1012.3,1026.5
2020-11-16T02:14:00+09:00,0.6,�k,1.4,�k�k��,10.8,96,0,0,0,0,0,0,1012.3,1026.5
2020-11-16T02:15:00+09:00,0.6,�k,1.4,�k�k��,10.9,96,0,0,0,0,0,0,1012.2,1026.4
2020-11-16T02:16:00+09:00,0.6,�k,1.4,�k�k��,10.8,96,0,0,0,0,0,0,1012.2,1026.4
2020-11-16T02:17:00+09:00,0.5,�k,1.4,�k�k��,10.8,95.9,0,0,0,0,0,0,1012.2,1026.4
2020-11-16T02:18:00+09:00,0.6,�k,1.4,�k�k��,10.8,96,0,0,0,0,0,0,1012.2,1026.4
2020-11-16T02:19:00+09:00,0.6,�k,1.4,�k�k��,10.7,95.9,0,0,0,0,0,0,1012.2,1026.4
2020-11-16T02:20:00+09:00,0.6,�k,1.4,�k�k��,10.7,95.8,0,0,0,0,0,0,1012.2,1026.4
2020-11-16T02:21:00+09:00,0.7,�k,1.4,�k�k��,10.7,95.9,0,0,0,0,0,0,1012.2,1026.4
2020-11-16T02:22:00+09:00,0.7,�k,1.4,�k,10.7,95.9,0,0,0,0,0,0,1012.2,1026.4
2020-11-16T02:23:00+09:00,0.7,�k,1.4,�k,10.7,96,0,0,0,0,0,0,1012.2,1026.4
2020-11-16T02:24:00+09:00,0.7,�k,1.4,�k,10.7,96,0,0,0,0,0,0,1012.2,1026.4
2020-11-16T02:25:00+09:00,0.7,�k,1.4,�k,10.7,96,0,0,0,0,0,0,1012.2,1026.4
2020-11-16T02:26:00+09:00,0.7,�k,1.4,�k,10.7,96.1,0,0,0,0,0,0,1012.1,1026.3
2020-11-16T02:27:00+09:00,0.7,�k,1.4,�k,10.7,96,0,0,0,0,0,0,1012.1,1026.3
2020-11-16T02:28:00+09:00,0.7,�k,1.4,�k,10.7,95.9,0,0,0,0,0,0,1012.1,1026.3
2020-11-16T02:29:00+09:00,0.7,�k�k��,1.4,�k,10.6,95.9,0,0,0,0,0,0,1012.1,1026.3
2020-11-16T02:30:00+09:00,0.6,�k�k��,1.4,�k,10.5,95.8,0,0,0,0,0,0,1012.1,1026.3
2020-11-16T02:31:00+09:00,0.5,�k�k��,1.2,�k��,10.6,95.9,0,0,0,0,0,0,1012.1,1026.3
2020-11-16T02:32:00+09:00,0.5,�k�k��,1.2,�k��,10.7,96,0,0,0,0,0,0,1012.1,1026.3
2020-11-16T02:33:00+09:00,0.5,�k�k��,1.2,�k��,10.6,96,0,0,0,0,0,0,1012.1,1026.3
2020-11-16T02:34:00+09:00,0.5,�k��,1.1,��,10.6,96,0,0,0,0,0,0,1012.1,1026.3
2020-11-16T02:35:00+09:00,0.5,�k��,1.1,��,10.8,96.2,0,0,0,0,0,0,1012.1,1026.3
2020-11-16T02:36:00+09:00,0.6,�k��,1.2,��,10.8,96.3,0,0,0,0,0,0,1012.1,1026.3
2020-11-16T02:37:00+09:00,0.6,�k��,1.2,��,10.6,96,0,0,0,0,0,0,1012.1,1026.3
2020-11-16T02:38:00+09:00,0.6,���k��,1.2,��,10.4,95.8,0,0,0,0,0,0,1012.1,1026.3
2020-11-16T02:39:00+09:00,0.6,���k��,1.2,��,10.4,95.6,0,0,0,0,0,0,1012.1,1026.3
2020-11-16T02:40:00+09:00,0.5,���k��,1.2,��,10.4,95.7,0,0,0,0,0,0,1012.1,1026.3
2020-11-16T02:41:00+09:00,0.5,���k��,1.2,��,10.5,95.9,0,0,0,0,0,0,1012.1,1026.3
2020-11-16T02:42:00+09:00,0.6,��,1.4,���k��,10.5,96,0,0,0,0,0,0,1012.1,1026.3
2020-11-16T02:43:00+09:00,0.7,��,1.4,���k��,10.5,96,0,0,0,0,0,0,1012.1,1026.3
2020-11-16T02:44:00+09:00,0.6,��,1.4,���k��,10.4,95.9,0,0,0,0,0,0,1012.1,1026.3
2020-11-16T02:45:00+09:00,0.6,��,1.4,���k��,10.5,96,0,0,0,0,0,0,1012.1,1026.3
2020-11-16T02:46:00+09:00,0.6,��,1.5,��,10.6,96.3,0,0,0,0,0,0,1012.1,1026.3
2020-11-16T02:47:00+09:00,0.6,��,1.5,��,10.8,96.6,0,0,0,0,0,0,1012,1026.2
2020-11-16T02:48:00+09:00,0.6,��,1.5,��,10.9,96.7,0,0,0,0,0,0,1012,1026.2
2020-11-16T02:49:00+09:00,0.6,��,1.5,��,10.9,96.7,0,0,0,0,0,0,1012,1026.2
2020-11-16T02:50:00+09:00,0.6,���k��,1.5,��,10.7,96.2,0,0,0,0,0,0,1012.1,1026.3
2020-11-16T02:51:00+09:00,0.6,���k��,1.5,��,10.6,96.1,0,0,0,0,0,0,1012,1026.2
2020-11-16T02:52:00+09:00,0.5,��,1.5,��,10.5,95.9,0,0,0,0,0,0,1012.1,1026.3
2020-11-16T02:53:00+09:00,0.4,��,1.5,��,10.5,96,0,0,0,0,0,0,1012.1,1026.3
2020-11-16T02:54:00+09:00,0.3,�k,1.5,��,10.4,96,0,0,0,0,0,0,1012.1,1026.3
2020-11-16T02:55:00+09:00,0.3,�k��,1.5,��,10.3,95.9,0,0,0,0,0,0,1012.1,1026.3
2020-11-16T02:56:00+09:00,0.2,�É�,1.4,���쐼,10.4,96,0,0,0,0,0,0,1012.1,1026.3
2020-11-16T02:57:00+09:00,0.1,�É�,0.7,��,10.4,96.2,0,0,0,0,0,0,1012.1,1026.3
2020-11-16T02:58:00+09:00,0.1,�É�,0.5,���k��,10.4,96.1,0,0,0,0,0,0,1012.1,1026.3
2020-11-16T02:59:00+09:00,0.2,�É�,0.8,���k��,10.2,95.9,0,0,0,0,0,0,1012.1,1026.3
2020-11-16T03:00:00+09:00,0.2,�É�,0.8,���k��,10.1,95.9,0,0,0,0,0,0,1012.1,1026.3
2020-11-16T03:01:00+09:00,0.2,�É�,0.8,���k��,10.1,95.9,0,0,0,0,0,0,1012.1,1026.3
2020-11-16T03:02:00+09:00,0.2,�É�,0.8,���k��,10.1,95.9,0,0,0,0,0,0,1012,1026.2
2020-11-16T03:03:00+09:00,0.2,�É�,0.8,���k��,10.1,96,0,0,0,0,0,0,1012,1026.2
2020-11-16T03:04:00+09:00,0.2,�É�,0.8,���k��,10.1,96.1,0,0,0,0,0,0,1012,1026.2
2020-11-16T03:05:00+09:00,0.2,�É�,0.8,���k��,10.2,96.3,0,0,0,0,0,0,1012,1026.2
2020-11-16T03:06:00+09:00,0.2,�É�,0.8,���k��,10.1,96.4,0,0,0,0,0,0,1012,1026.2
2020-11-16T03:07:00+09:00,0.2,�É�,0.8,���k��,10.2,96.3,0,0,0,0,0,0,1012,1026.2
2020-11-16T03:08:00+09:00,0.1,�É�,0.8,���k��,10.2,96.3,0,0,0,0,0,0,1012,1026.2
2020-11-16T03:09:00+09:00,0.1,�É�,0.8,�k�k��,10.1,96.4,0,0,0,0,0,0,1012,1026.2
2020-11-16T03:10:00+09:00,0.1,�É�,0.8,�k�k��,10.1,96.3,0,0,0,0,0,0,1012,1026.2
2020-11-16T03:11:00+09:00,0.1,�É�,0.8,�k�k��,10.2,96.4,0,0,0,0,0,0,1012,1026.2
2020-11-16T03:12:00+09:00,0.1,�É�,0.6,�k,10.4,96.6,0,0,0,0,0,0,1012,1026.2
2020-11-16T03:13:00+09:00,0.1,�É�,0.6,�k,10.5,96.8,0,0,0,0,0,0,1012,1026.2
2020-11-16T03:14:00+09:00,0.2,�É�,0.6,�k,10.7,97,0,0,0,0,0,0,1012,1026.2
2020-11-16T03:15:00+09:00,0.2,�É�,0.6,�k,10.7,97,0,0,0,0,0,0,1012,1026.2
2020-11-16T03:16:00+09:00,0.2,�É�,0.6,�k,10.5,96.7,0,0,0,0,0,0,1012,1026.2
2020-11-16T03:17:00+09:00,0.2,�É�,0.6,�k,10.6,96.6,0,0,0,0,0,0,1012,1026.2
2020-11-16T03:18:00+09:00,0.3,�k�k��,0.6,�k,10.5,96.5,0,0,0,0,0,0,1012,1026.2
2020-11-16T03:19:00+09:00,0.3,�k�k��,0.6,�k,10.4,96.4,0,0,0,0,0,0,1012,1026.2
2020-11-16T03:20:00+09:00,0.3,�k�k��,0.6,�k,10.4,96.3,0,0,0,0,0,0,1012,1026.2
2020-11-16T03:21:00+09:00,0.3,�k�k��,0.6,�k,10.4,96.2,0,0,0,0,0,0,1012,1026.2
2020-11-16T03:22:00+09:00,0.3,�k�k��,0.6,�k��,10.3,96.3,0,0,0,0,0,0,1012,1026.2
2020-11-16T03:23:00+09:00,0.3,�k��,0.6,�k��,10.2,96.2,0,0,0,0,0,0,1011.9,1026.1
2020-11-16T03:24:00+09:00,0.2,�É�,0.6,�k��,10.2,96.1,0,0,0,0,0,0,1011.9,1026.1
2020-11-16T03:25:00+09:00,0.2,�É�,0.6,�k��,10.2,96.2,0,0,0,0,0,0,1012,1026.2
2020-11-16T03:26:00+09:00,0.2,�É�,0.6,�k��,10.2,96.3,0,0,0,0,0,0,1012,1026.2
2020-11-16T03:27:00+09:00,0.2,�É�,0.5,�k��,10.2,96.3,0,0,0,0,0,0,1011.9,1026.1
2020-11-16T03:28:00+09:00,0.2,�É�,0.5,�k��,10.2,96.3,0,0,0,0,0,0,1011.9,1026.1
2020-11-16T03:29:00+09:00,0.2,�É�,0.5,�k��,10.1,96.2,0,0,0,0,0,0,1012,1026.2
2020-11-16T03:30:00+09:00,0.2,�É�,0.5,�k��,10.2,96.3,0,0,0,0,0,0,1012,1026.2
2020-11-16T03:31:00+09:00,0.2,�É�,0.5,�k��,10.2,96.4,0,0,0,0,0,0,1012,1026.2
2020-11-16T03:32:00+09:00,0.2,�É�,0.6,���k��,10.2,96.5,0,0,0,0,0,0,1012,1026.2
2020-11-16T03:33:00+09:00,0.3,���k��,0.6,���k��,10.2,96.4,0,0,0,0,0,0,1012,1026.2
2020-11-16T03:34:00+09:00,0.3,���k��,0.6,���k��,10.2,96.4,0,0,0,0,0,0,1012,1026.2
2020-11-16T03:35:00+09:00,0.3,���k��,0.6,���k��,10.1,96.4,0,0,0,0,0,0,1011.9,1026.1
2020-11-16T03:36:00+09:00,0.3,��,0.6,���k��,10.1,96.4,0,0,0,0,0,0,1012,1026.2
2020-11-16T03:37:00+09:00,0.2,�É�,0.6,���k��,10.3,96.7,0,0,0,0,0,0,1011.9,1026.1
2020-11-16T03:38:00+09:00,0.2,�É�,0.6,���k��,10.3,96.8,0,0,0,0,0,0,1011.9,1026.1
2020-11-16T03:39:00+09:00,0.2,�É�,0.6,���k��,10.3,96.6,0,0,0,0,0,0,1011.9,1026.1
2020-11-16T03:40:00+09:00,0.2,�É�,0.6,���k��,10.2,96.6,0,0,0,0,0,0,1011.9,1026.1
2020-11-16T03:41:00+09:00,0.2,�É�,0.6,���k��,10.2,96.5,0,0,0,0,0,0,1011.9,1026.1
2020-11-16T03:42:00+09:00,0.1,�É�,0.6,��,10.1,96.4,0,0,0,0,0,0,1011.9,1026.1
2020-11-16T03:43:00+09:00,0.1,�É�,0.4,���쐼,10,96.2,0,0,0,0,0,0,1011.9,1026.1
2020-11-16T03:44:00+09:00,0.1,�É�,0.3,���k��,10,96.3,0,0,0,0,0,0,1011.9,1026.1
2020-11-16T03:45:00+09:00,0.1,�É�,0.3,���k��,10,96.4,0,0,0,0,0,0,1011.9,1026.1
2020-11-16T03:46:00+09:00,0.1,�É�,0.3,���k��,10.1,96.5,0,0,0,0,0,0,1011.8,1026
2020-11-16T03:47:00+09:00,0.1,�É�,0.3,���k��,10.1,96.6,0,0,0,0,0,0,1011.9,1026.1
2020-11-16T03:48:00+09:00,0.1,�É�,0.6,�k�k��,10,96.4,0,0,0,0,0,0,1011.9,1026.1
2020-11-16T03:49:00+09:00,0.1,�É�,0.7,�k�k��,9.9,96.3,0,0,0,0,0,0,1011.9,1026.1
2020-11-16T03:50:00+09:00,0.2,�É�,0.9,�k�k��,9.9,96.1,0,0,0,0,0,0,1011.9,1026.1
2020-11-16T03:51:00+09:00,0.2,�É�,0.9,�k�k��,9.8,96.1,0,0,0,0,0,0,1011.9,1026.1
2020-11-16T03:52:00+09:00,0.2,�É�,0.9,�k�k��,9.7,96,0,0,0,0,0,0,1011.9,1026.1
2020-11-16T03:53:00+09:00,0.3,�k,1.7,�k�k��,9.7,96.2,0,0,0,0,0,0,1011.9,1026.1
2020-11-16T03:54:00+09:00,0.5,�k,2.1,�k�k��,9.7,96.2,0,0,0,0,0,0,1012,1026.2
2020-11-16T03:55:00+09:00,0.6,�k,2.1,�k�k��,9.8,96.3,0,0,0,0,0,0,1012,1026.2
2020-11-16T03:56:00+09:00,0.8,�k�k��,2.4,�k,9.7,96.4,0,0,0,0,0,0,1012,1026.2
2020-11-16T03:57:00+09:00,0.9,�k,2.4,�k,9.7,96.2,0,0,0,0,0,0,1011.9,1026.1
2020-11-16T03:58:00+09:00,1,�k,2.4,�k,9.8,96.4,0,0,0,0,0,0,1011.9,1026.1
2020-11-16T03:59:00+09:00,1,�k,2.4,�k,9.8,96.5,0,0,0,0,0,0,1012,1026.2
2020-11-16T04:00:00+09:00,1,�k�k��,2.4,�k,9.6,96.2,0,0,0,0,0,0,1012,1026.3
2020-11-16T04:01:00+09:00,1,�k�k��,2.4,�k,9.7,96.2,0,0,0,0,0,0,1012,1026.2
2020-11-16T04:02:00+09:00,1,�k�k��,2.4,�k,9.6,96.3,0,0,0,0,0,0,1012,1026.3
2020-11-16T04:03:00+09:00,1,�k�k��,2.4,�k,9.6,96.3,0,0,0,0,0,0,1012,1026.3
2020-11-16T04:04:00+09:00,0.9,�k�k��,2.4,�k,9.7,96.4,0,0,0,0,0,0,1012,1026.2
2020-11-16T04:05:00+09:00,0.9,�k�k��,2.4,�k,9.8,96.6,0,0,0,0,0,0,1012,1026.2
2020-11-16T04:06:00+09:00,0.7,�k�k��,2.3,�k�k��,9.7,96.5,0,0,0,0,0,0,1012,1026.2
2020-11-16T04:07:00+09:00,0.6,�k�k��,1.8,�k�k��,9.6,96.3,0,0,0,0,0,0,1012,1026.3
2020-11-16T04:08:00+09:00,0.5,�k,1.2,�k�k��,9.5,96.3,0,0,0,0,0,0,1012,1026.3
2020-11-16T04:09:00+09:00,0.4,�k,1.2,�k�k��,9.5,96.3,0,0,0,0,0,0,1012,1026.3
2020-11-16T04:10:00+09:00,0.5,�k,1.2,�k�k��,9.6,96.5,0,0,0,0,0,0,1012,1026.3
2020-11-16T04:11:00+09:00,0.4,�k,1.2,�k�k��,9.7,96.7,0,0,0,0,0,0,1012,1026.2
2020-11-16T04:12:00+09:00,0.4,�k,1.2,�k�k��,9.8,96.9,0,0,0,0,0,0,1012,1026.2
2020-11-16T04:13:00+09:00,0.4,�k,1.2,�k�k��,9.7,96.9,0,0,0,0,0,0,1012,1026.2
2020-11-16T04:14:00+09:00,0.3,�k,1,�k�k��,9.6,96.7,0,0,0,0,0,0,1012,1026.3
2020-11-16T04:15:00+09:00,0.3,�k,1,�k,9.7,96.7,0,0,0,0,0,0,1012,1026.2
2020-11-16T04:16:00+09:00,0.4,�k,1.2,�k,9.7,96.8,0,0,0,0,0,0,1012,1026.2
2020-11-16T04:17:00+09:00,0.5,�k,1.2,�k,9.7,96.8,0,0,0,0,0,0,1012,1026.2
2020-11-16T04:18:00+09:00,0.5,�k,1.2,�k,9.8,96.9,0,0,0,0,0,0,1012,1026.2
2020-11-16T04:19:00+09:00,0.5,�k,1.2,�k,9.6,96.7,0,0,0,0,0,0,1012,1026.3
2020-11-16T04:20:00+09:00,0.6,�k,1.3,�k�k��,9.6,96.6,0,0,0,0,0,0,1012,1026.3
2020-11-16T04:21:00+09:00,0.7,�k,1.6,�k,9.6,96.6,0,0,0,0,0,0,1012,1026.3
2020-11-16T04:22:00+09:00,0.7,�k,1.6,�k,9.7,96.8,0,0,0,0,0,0,1012,1026.2
2020-11-16T04:23:00+09:00,0.8,�k,1.6,�k,9.6,96.8,0,0,0,0,0,0,1012,1026.3
2020-11-16T04:24:00+09:00,0.8,�k�k��,1.6,�k,9.8,96.9,0,0,0,0,0,0,1012,1026.2
2020-11-16T04:25:00+09:00,0.8,�k�k��,1.6,�k,9.6,96.8,0,0,0,0,0,0,1012,1026.3
2020-11-16T04:26:00+09:00,0.8,�k�k��,1.6,�k,9.6,96.6,0,0,0,0,0,0,1012,1026.3
2020-11-16T04:27:00+09:00,0.8,�k�k��,1.6,�k,9.6,96.6,0,0,0,0,0,0,1012,1026.3
2020-11-16T04:28:00+09:00,0.8,�k�k��,1.6,�k,9.7,96.8,0,0,0,0,0,0,1012,1026.2
2020-11-16T04:29:00+09:00,0.9,�k�k��,1.6,�k,9.8,96.8,0,0,0,0,0,0,1012,1026.2
2020-11-16T04:30:00+09:00,0.9,�k��,1.6,�k,9.6,96.9,0,0,0,0,0,0,1012,1026.3
2020-11-16T04:31:00+09:00,0.8,�k��,1.6,���k��,9.5,96.6,0,0,0,0,0,0,1012,1026.3
2020-11-16T04:32:00+09:00,0.8,�k��,1.4,�k��,9.6,96.7,0,0,0,0,0,0,1012,1026.3
2020-11-16T04:33:00+09:00,0.7,�k��,1.4,�k��,9.5,96.7,0,0,0,0,0,0,1012,1026.3
2020-11-16T04:34:00+09:00,0.7,�k��,1.4,�k��,9.5,96.7,0,0,0,0,0,0,1012,1026.3
2020-11-16T04:35:00+09:00,0.7,�k�k��,1.4,�k��,9.5,96.7,0,0,0,0,0,0,1011.9,1026.2
2020-11-16T04:36:00+09:00,0.7,�k�k��,1.5,�k,9.5,96.7,0,0,0,0,0,0,1012,1026.3
2020-11-16T04:37:00+09:00,0.7,�k�k��,1.5,�k,9.5,96.8,0,0,0,0,0,0,1012,1026.3
2020-11-16T04:38:00+09:00,0.7,�k�k��,1.5,�k,9.4,96.8,0,0,0,0,0,0,1012,1026.3
2020-11-16T04:39:00+09:00,0.6,�k�k��,1.5,�k,9.4,96.6,0,0,0,0,0,0,1012,1026.3
2020-11-16T04:40:00+09:00,0.5,�k�k��,1.5,�k,9.4,96.7,0,0,0,0,0,0,1012,1026.3
2020-11-16T04:41:00+09:00,0.4,�k��,1.5,�k,9.4,96.8,0,0,0,0,0,0,1012,1026.3
2020-11-16T04:42:00+09:00,0.4,�k��,1.5,�k,9.5,96.8,0,0,0,0,0,0,1012,1026.3
2020-11-16T04:43:00+09:00,0.4,�k��,1.5,�k,9.6,97,0,0,0,0,0,0,1012,1026.3
2020-11-16T04:44:00+09:00,0.4,�k��,1.5,�k,9.7,97.3,0,0,0,0,0,0,1012,1026.2
2020-11-16T04:45:00+09:00,0.4,�k��,1.5,�k,9.6,97.2,0,0,0,0,0,0,1012,1026.3
2020-11-16T04:46:00+09:00,0.4,�k��,1.3,�k��,9.6,97.2,0,0,0,0,0,0,1012.1,1026.4
2020-11-16T04:47:00+09:00,0.4,�k��,1.3,�k��,9.6,97,0,0,0,0,0,0,1012.1,1026.4
2020-11-16T04:48:00+09:00,0.5,�k��,1.3,�k��,9.7,97,0,0,0,0,0,0,1012.1,1026.4
2020-11-16T04:49:00+09:00,0.6,�k��,1.3,�k��,9.7,97.2,0,0,0,0,0,0,1012.1,1026.4
2020-11-16T04:50:00+09:00,0.7,�k��,1.3,�k��,9.6,97.2,0,0,0,0,0,0,1012.1,1026.4
2020-11-16T04:51:00+09:00,0.7,�k�k��,1.3,�k��,9.7,97.2,0,0,0,0,0,0,1012.1,1026.4
2020-11-16T04:52:00+09:00,0.8,�k�k��,1.3,�k��,9.7,97.3,0,0,0,0,0,0,1012.1,1026.4
2020-11-16T04:53:00+09:00,0.8,�k�k��,1.3,�k��,9.7,97.3,0,0,0,0,0,0,1012.1,1026.4
2020-11-16T04:54:00+09:00,0.9,�k�k��,1.3,�k��,9.6,97.2,0,0,0,0,0,0,1012.1,1026.4
2020-11-16T04:55:00+09:00,0.9,�k,1.3,�k��,9.7,97.2,0,0,0,0,0,0,1012.1,1026.4
2020-11-16T04:56:00+09:00,0.8,�k,1.5,�k��,9.7,97.3,0,0,0,0,0,0,1012.1,1026.4
2020-11-16T04:57:00+09:00,0.8,�k�k��,1.5,�k��,9.5,97.1,0,0,0,0,0,0,1012.1,1026.4
2020-11-16T04:58:00+09:00,0.9,�k�k��,1.5,�k��,9.5,97,0,0,0,0,0,0,1012.1,1026.4
2020-11-16T04:59:00+09:00,0.9,�k�k��,1.7,�k�k��,9.4,97.1,0,0,0,0,0,0,1012.1,1026.4
2020-11-16T05:00:00+09:00,0.9,�k�k��,1.7,�k�k��,9.4,97,0,0,0,0,0,0,1012.1,1026.4
2020-11-16T05:01:00+09:00,0.9,�k�k��,1.7,�k�k��,9.5,97.1,0,0,0,0,0,0,1012.1,1026.4
2020-11-16T05:02:00+09:00,0.9,�k�k��,1.7,�k�k��,9.4,97.2,0,0,0,0,0,0,1012.1,1026.4
2020-11-16T05:03:00+09:00,0.9,�k�k��,1.7,�k�k��,9.4,97.2,0,0,0,0,0,0,1012.1,1026.4
2020-11-16T05:04:00+09:00,1,�k�k��,1.7,�k�k��,9.4,97.2,0,0,0,0,0,0,1012.1,1026.4